Peoria, IL

9:48 AM CST on November 21, 2019 (GMT -0600)
Greater Peoria Regional

Weather History for KPIA - September, 2019

Change the Weather History Date:

Wednesday, September 11, 2019

  Actual Average Record
Temperature  
Mean Temperature 80 °F 68 °F  
Max Temperature 89 °F 79 °F 98 °F (1933)
Min Temperature 72 °F 57 °F 35 °F (1917)
Degree Days  
Heating Degree Days 0 1  
Month to date heating degree days 10  
Since 1 July heating degree days 16  
Cooling Degree Days 16 5  
Month to date cooling degree days 65  
Year to date cooling degree days 972  
Growing Degree Days 30 (Base 50)    
Moisture  
Dew Point 71 °F    
Average Humidity 77    
Maximum Humidity 93    
Minimum Humidity 55    
Precipitation  
Precipitation 0.00 in 0.11 in 1.10 in (1944)
Month to date precipitation 1.22  
Year to date precipitation 26.17  
Snow  
Snow - 0.00 in 0.00 in ()
Month to date snowfall 0.0  
Since 1 July snowfall 0.0  
Since 1 September snowfall 0.0  
Snow Depth -    
Sea Level Pressure  
Sea Level Pressure 30.07 in    
Wind  
Wind Speed 7 mph ()    
Max Wind Speed 16 mph    
Max Gust Speed 18 mph    
Visibility 8.6 miles    
Events      
T = Trace of Precipitation, MM = Missing Value Source: Averaged Metar Reports

Daily Weather History Graph

Daily Weather History Graph

Search for Another Location

Airport or City:

Astronomy

Sep. 11, 2019 Rise Set
Actual Time 6:35 AM CDT 7:14 PM CDT
Civil Twilight 6:07 AM CDT 7:42 PM CDT
Nautical Twilight 5:35 AM CDT 8:14 PM CDT
Astronomical Twilight 5:01 AM CDT 8:48 PM CDT
Moon 6:27 PM CDT (9/11) 3:56 AM CDT (9/11)
Length of Visible Light 13h 34m
Length of Day
12h 39m
Waxing Gibbous, 95% of the Moon is Illuminated
Sep 11
Waxing Gibbous
Sep 13
Full
Sep 21
Last Quarter
Sep 28
New
Oct 5
First Quarter

Hourly Weather History & Observations

Time (CDT) Temp. Heat Index Dew Point Humidity Pressure Visibility Wind Dir Wind Speed Gust Speed Precip Events Conditions
12:54 AM 73.0 °F - 70.0 °F 90% 30.10 in 7.0 mi SW 4.6 mph - N/A   Clear
1:54 AM 73.0 °F - 70.0 °F 90% 30.10 in 6.0 mi SSW 4.6 mph - N/A   Clear
2:54 AM 73.0 °F - 71.1 °F 93% 30.10 in 5.0 mi SW 4.6 mph - N/A   Clear
3:54 AM 73.0 °F - 71.1 °F 93% 30.09 in 6.0 mi South 5.8 mph - N/A   Clear
4:54 AM 72.0 °F - 70.0 °F 93% 30.09 in 6.0 mi South 5.8 mph - N/A   Partly Cloudy
5:54 AM 73.0 °F - 70.0 °F 90% 30.10 in 7.0 mi SSW 5.8 mph - N/A   Mostly Cloudy
6:54 AM 73.0 °F - 70.0 °F 90% 30.11 in 5.0 mi South 5.8 mph - N/A   Clear
7:54 AM 73.9 °F - 71.1 °F 91% 30.13 in 7.0 mi South 8.1 mph - N/A   Clear
8:54 AM 75.9 °F - 72.0 °F 87% 30.14 in 8.0 mi South 8.1 mph - N/A   Clear
9:54 AM 78.1 °F - 72.0 °F 81% 30.13 in 10.0 mi SSW 9.2 mph - N/A   Clear
10:54 AM 82.9 °F 88.8 °F 73.0 °F 72% 30.12 in 10.0 mi SW 10.4 mph - N/A   Clear
11:54 AM 86.0 °F 93.0 °F 73.0 °F 65% 30.11 in 10.0 mi SSW 13.8 mph 18.4 mph N/A   Clear
12:54 PM 86.0 °F 92.2 °F 72.0 °F 63% 30.10 in 10.0 mi SSW 12.7 mph - N/A   Clear
1:54 PM 88.0 °F 93.8 °F 71.1 °F 57% 30.09 in 10.0 mi SW 16.1 mph - N/A   Clear
2:54 PM 89.1 °F 96.0 °F 72.0 °F 57% 30.07 in 10.0 mi WSW 12.7 mph - N/A   Clear
3:54 PM 89.1 °F 95.0 °F 71.1 °F 55% 30.04 in 10.0 mi SW 11.5 mph - N/A   Clear
4:54 PM 88.0 °F 93.8 °F 71.1 °F 57% 30.02 in 10.0 mi SW 11.5 mph - N/A   Clear
5:54 PM 87.1 °F 93.6 °F 72.0 °F 61% 30.01 in 10.0 mi SW 10.4 mph - N/A   Clear
6:54 PM 84.0 °F 89.0 °F 71.1 °F 65% 30.01 in 10.0 mi SW 5.8 mph - N/A   Clear
7:54 PM 81.0 °F 84.4 °F 70.0 °F 69% 30.01 in 10.0 mi South 6.9 mph - N/A   Clear
8:54 PM 79.0 °F - 71.1 °F 77% 30.03 in 10.0 mi South 6.9 mph - N/A   Clear
9:54 PM 78.1 °F - 71.1 °F 79% 30.03 in 10.0 mi South 5.8 mph - N/A   Clear
10:54 PM 77.0 °F - 71.1 °F 82% 30.03 in 10.0 mi SSW 6.9 mph - N/A   Clear
11:54 PM 75.9 °F - 71.1 °F 85% 30.02 in 9.0 mi SSW 8.1 mph - N/A   Clear